Weather History for Curtin, WE

Change the Weather History Date:

Saturday, August 31, 2013

  Actual Average Record
Temperature  
Mean Temperature 80 °F -  
Max Temperature 96 °F - - ()
Min Temperature 64 °F - - ()
Cooling Degree Days 15    
Growing Degree Days 30 (Base 50)    
Moisture  
Dew Point 59 °F    
Average Humidity 52    
Maximum Humidity 88    
Minimum Humidity 16    
Precipitation  
Precipitation 0.00 in - - ()
Sea Level Pressure  
Sea Level Pressure 29.94 in    
Wind  
Wind Speed 7 mph ()    
Max Wind Speed 13 mph    
Max Gust Speed -    
T = Trace of Precipitation, MM = Missing Value Source: Averaged Metar Reports

Daily Weather History Graph

Daily Weather History Graph

Search for Another Location

Airport:

Trip Planner

Search our weather history database for the weather conditions in past years. The results will help you decide how hot, cold, wet, or windy it might be!

Date:

Astronomy

Aug. 31, 2013 Rise Set
Actual Time 5:52 AM AWST 5:37 PM AWST
Civil Twilight 5:30 AM AWST 5:59 PM AWST
Nautical Twilight 5:05 AM AWST 6:24 PM AWST
Astronomical Twilight 4:40 AM AWST 6:50 PM AWST
Moon 1:47 AM AWST (8/31) 1:17 PM AWST (8/31)
Length of Visible Light 12h 28m
Length of Day
11h 44m
Waning Crescent, 25% of the Moon is Illuminated
Aug 31
Waning Crescent
Sep 5
New
Sep 13
First Quarter
Sep 19
Full
Sep 27
Last Quarter

Hourly Weather History & Observations

Time (AWST) Temp. Heat Index Dew Point Humidity Pressure Visibility Wind Dir Wind Speed Gust Speed Precip Events Conditions
12:00 AM 72 °F - 61 °F 60% 29.91 in - SW 9.2 mph - -  
12:00 AM 71.6 °F - 60.8 °F 69% 29.92 in - SW 9.2 mph - N/A   Unknown
1:00 AM 69.8 °F - 62.6 °F 78% 29.89 in - SSW 6.9 mph - N/A   Unknown
2:00 AM 68.0 °F - 60.8 °F 78% 29.89 in - SSW 5.8 mph - N/A   Unknown
3:00 AM 68 °F - 62 °F 75% 29.89 in - SSW 6.9 mph - -  
3:00 AM 68.0 °F - 62.6 °F 83% 29.89 in - SSW 6.9 mph - N/A   Unknown
4:00 AM 66.2 °F - 60.8 °F 83% 29.92 in - South 5.8 mph - N/A   Unknown
5:00 AM 66.2 °F - 60.8 °F 83% 29.92 in - South 5.8 mph - N/A   Unknown
6:00 AM 65 °F - 61 °F 81% 29.96 in - South 5.8 mph - -  
6:00 AM 64.4 °F - 60.8 °F 88% 29.95 in - South 5.8 mph - N/A   Unknown
7:00 AM 71.6 °F - 60.8 °F 69% 30.01 in - SW 5.8 mph - N/A   Unknown
8:00 AM 75.2 °F - 57.2 °F 53% 30.01 in - SSW 9.2 mph - N/A   Unknown
9:00 AM 78.8 °F - 55.4 °F 44% 30.04 in - South 6.9 mph - N/A   Unknown
10:00 AM 84.2 °F 83.0 °F 55.4 °F 37% 30.01 in - South 6.9 mph - N/A   Unknown
11:00 AM 87.8 °F 86.1 °F 55.4 °F 33% 29.98 in - South 6.9 mph - N/A   Unknown
12:00 PM 90 °F - 54 °F 20% 29.95 in - West 5.8 mph - -  
12:00 PM 89.6 °F 87.3 °F 53.6 °F 29% 29.95 in - West 5.8 mph - N/A   Unknown
1:00 PM 93.2 °F 91.3 °F 55.4 °F 28% 29.92 in - South 5.8 mph - N/A   Unknown
2:00 PM 95.0 °F 92.7 °F 53.6 °F 25% 29.89 in - SW 4.6 mph - N/A   Unknown
3:00 PM 95 °F - 53 °F 16% 29.86 in - West 8.1 mph - -  
3:00 PM 95.0 °F 92.7 °F 53.6 °F 25% 29.86 in - West 8.1 mph - N/A   Unknown
4:00 PM 95.0 °F 93.0 °F 55.4 °F 26% 29.86 in - NW 8.1 mph - N/A   Unknown
5:00 PM 91.4 °F 89.1 °F 53.6 °F 28% 29.89 in - WNW 6.9 mph - N/A   Unknown
6:00 PM 87 °F - 58 °F 27% 29.91 in - WNW 9.2 mph - -  
6:00 PM 87.8 °F 86.5 °F 57.2 °F 35% 29.92 in - WNW 9.2 mph - N/A   Unknown
7:00 PM 82.4 °F 82.9 °F 60.8 °F 48% 29.95 in - WNW 5.8 mph - N/A   Unknown
8:00 PM 78.8 °F - 62.6 °F 57% 29.95 in - West 5.8 mph - N/A   Unknown
9:00 PM 78 °F - 62 °F 49% 29.97 in - WSW 8.1 mph - -  
9:00 PM 78.8 °F - 62.6 °F 57% 29.98 in - WSW 8.1 mph - N/A   Unknown
10:00 PM 77.0 °F - 62.6 °F 61% 29.98 in - SW 12.7 mph - N/A   Unknown
11:00 PM 75.2 °F - 64.4 °F 69% 29.98 in - SW 10.4 mph - N/A   Unknown